www.pogodaiklimat.ru

Погода и климат >> Архив погоды >> Россия >> Чукотка >> Мыс Биллингс


АРХИВ ПОГОДЫ на Мысе Биллингс

Время (UTC), дата Ветер
(напр.,м/с)
 
Видим.   Явления Облачность Т
(С)
Тd
(С)
f
(%)
Тe
(С)
Тes
(С)
Комфортность P
(гПа)
Po
(гПа)
Тmin
(С)
Tmax
(С)
R
(мм)
R24
(мм)
S
(см)
00 18.08 В 4
{6}
50 км 9/0
[Ci]
+7.2 +4.0 80 +4 +7 1035.4 1035.0
06 18.08 В 4
{6}
50 км 8/0
[Ci]
+6.1 +3.2 82 +2 +3 1034.9 1034.5 +7.2
12 18.08 В 2
{4}
20 км 9/0
[Ci fib]
+4.0 +2.2 88 +1 +1 1030.5 1030.1
18 18.08 В 3
{5}
20 км 8/0
[Ci fib]
+4.4 +2.4 87 +1 +1 1029.3 1028.9 +4.0
00 19.08 штиль 0
{2}
50 км 9/0
[Ac As]
+9.4 +6.8 84 +9 +12 1026.6 1026.2
06 19.08 СВ 2
{4}
4000 м дымка 8/0
[Ac As]
+5.6 +4.7 94 +3 +3 1025.7 1025.3 +9.4
12 19.08 СВ 2
{4}
200 м туман ?/? +3.6 +3.6 100 0 0 1027.3 1026.9
18 19.08 СВ 2
{4}
200 м туман ?/? +4.0 +4.0 100 +1 +1 1028.4 1028.0 +3.5
00 20.08 В 3
{5}
50 км {туман} ясно +7.2 +5.5 89 +4 +9 1027.4 1027.0
06 20.08 ЮВ 7
{9}
50 км ясно +8.0 +6.2 88 +3 +4 1024.9 1024.5 +8.0
12 20.08 ЮВ 4
{6}
50 км 3/0
[Ci fib]
+6.8 +5.0 88 +3 +3 1023.3 1022.9
18 20.08 ЮВ 3
{5}
50 км 4/0
[Ci fib]
+7.5 +5.3 86 +5 +5 1022.4 1022.0 +6.7
00 21.08 ЮЗ 3
{5}
50 км 9/0
[Ci]
+10.8 +8.4 85 +9 +13 1019.1 1018.7
06 21.08 В 2
{4}
50 км 8/0
[Ci]
+10.4 +7.0 79 +9 +10 1015.6 1015.2 +10.8
12 21.08 СЗ 2
{4}
50 км 6/0
[Ci fib]
+5.8 +4.2 89 +3 +3 1014.4 1014.0
18 21.08 СЗ 3
{5}
50 км 8/0
[Ci fib]
+6.9 +4.9 87 +4 +4 1013.4 1013.0 +5.7
00 22.08 СЗ 4
{6}
1000 м слаб. морось 10/10 200 м
[St]
+4.8 +4.1 95 0 0 1016.6 1016.2
06 22.08 СЗ 4
{6}
1000 м дымка 10/10 200 м
[St]
+4.4 +3.4 93 -0 -0 1020.9 1020.5 +6.9 0.0
12 22.08 СЗ 3
{5}
4000 м дымка 10/10 200 м
[St]
+4.4 +3.4 93 +1 +1 1022.6 1022.2
18 22.08 СЗ 3
{5}
4000 м дымка 10/10 200 м
[St]
+4.2 +2.7 90 0 0 1023.8 1023.4 +4.1
00 23.08 З 6
{8}
50 км 9/8 600 м
[Sc Ac trans]
+5.6 +2.7 82 +1 +1 1023.8 1023.4
06 23.08 З 6
{8}
50 км 9/4 600 м
[Sc Ac As]
+5.4 +3.5 88 0 0 1021.8 1021.4 +5.6
12 23.08 З 4
{6}
4000 м дымка 9/9 600 м
[Sc]
+4.0 +3.0 93 -1 -1 1020.7 1020.3
18 23.08 З 4
{6}
10 км 8/6 600 м
[Sc Ac As]
+4.4 +2.7 89 0 0 1020.2 1019.8 +3.9
00 24.08 СЗ 1
{3}
20 км 6/3 600 м
[Sc Ci fib]
+5.2 +3.3 88 +4 +8 1017.8 1017.4
06 24.08 З 2
{4}
20 км 8/4 600 м
[Sc Ac trans]
+5.0 +2.8 86 +2 +3 1017.1 1016.7 +5.2
12 24.08 З 2
{4}
20 км 8/8 600 м
[Sc]
+4.2 +2.7 90 +1 +1 1016.8 1016.4
18 24.08 СЗ 3
{5}
10 км 5/3 600 м
[Sc Ac trans]
+3.8 +2.3 90 -0 0 1016.3 1015.9 +3.7

 

Местоположение метеостанции Мыс Биллингс (Чукотка, Россия): широта 69.88 долгота 175.70 высота над уровнем моря 3 м.

В архиве по умолчанию представлена погода на Мысе Биллингс за последнюю неделю. Архивные данные за месяц целиком и за предыдущие месяцы, начиная с января 2011 года, Вы можете получить, выбрав интересующий диапазон дат из раскрывающегося списка и нажав кнопку "Ввод!".


*Определитесь, кто Вы:
робот инопланетянин человек

Внимание! Время в таблицах - всемирное. Для получения местного времени необходимо прибавить поправку, которая равна 12 ч.

Смотрите также архив погоды в соседних городах и на ближайших метеорологических станциях:

Погода в Паляваам-Глубокой (Чукотка, Россия) (105 км)
Погода в Комсомольской (Чукотка, Россия) (140 км)
Погода в Майской (Чукотка, Россия) (170 км)
Погода в Валькаркае (Чукотка, Россия) (184 км)
Погода на 21 км (Чукотка, Россия) (189 км)
Погода в Певеке (Чукотка, Россия) (212 км)
Погода в Чауне (Чукотка, Россия) (225 км)
Погода на Айон Острове (Чукотка, Россия) (298 км)
Погода в Раучуе (Чукотка, Россия) (357 км)
Погода в Эньмувееме (Чукотка, Россия) (402 км)

Пояснения к столбцам:

Ветер - указаны скорость ветра в м/с - средняя за 10 мин, порывы в срок и между сроками (в фигурных скобках) и направление, откуда дует ветер: С - северный, СВ - северо-восточный, В - восточный, ЮВ - юго-восточный, Ю - южный, ЮЗ - юго-западный, З - западный, СЗ - северо-западный.
Видимость - горизонтальная дальность видимости в метрах или километрах. При видимости от 1 до 10 км при отсутствии осадков обычно наблюдается дымка, при ухудшении видимости до 1 км и менее - туман. В сухую погоду видимость может ухудшаться дымом, пылью или мглою.
Явления - указаны атмосферные явления, наблюдавшиеся в срок или в последний час перед сроком; фигурными скобками обозначены явления, наблюдавшиеся между сроками (за 1-3 часа до срока); квадратными скобками обозначены град или гололедные отложения с указанием их диаметра в мм.
Облачность - указаны через наклонную черту общая и нижняя облачность в баллах и высота нижней границы облаков в метрах; квадратными скобками обозначены формы облаков: Ci - перистые, Cs - перисто-слоистые, Cc - перисто-кучевые, Ac - высококучевые, As - высокослоистые, Sc - слоисто-кучевые, Ns - слоисто-дождевые, Cu - кучевые, Cb - кучево-дождевые. Подробнее классификацию облаков см. в Атласе облаков (PDF).
T - Температура воздуха - температура, измеренная на высоте 2 м над землей.
Td - Температура точки росы - температура, при понижении до которой содержащийся в воздухе водяной пар достигнет насыщения.
f - Относительная влажность воздуха - влажноcть воздуха, измеренная на высоте 2 м над землей.
Te - Эффективная температура - температура, которую ощущает одетый по сезону человек в тени. Характеристика душности погоды. При расчете учитывается влияние влажности воздуха и скорости ветра на теплоощущения человека.
Tes - Эффективная температура на солнце - температура, которую ощущает человек, с поправкой на солнечный нагрев. Характеристика знойности погоды. Зависит от высоты солнца над горизонтом, облачности и скорости ветра. Ночью, в пасмурную погоду, а также при ветре 12 м/с и более поправка равна нулю.
P - Атмосферное давление - приведенное к уровню моря атмосферное давление.
Po - Атмосферное давление - измеренное на уровне метеостанции атмосферное давление.
Tmin - Минимальная температура - минимум температуры воздуха на высоте 2 м над землей.
Tmax - Максимальная температура - максимум температуры воздуха на высоте 2 м над землей.
R - Количество осадков - Количество выпавших осадков за период времени, мм. При наведении курсора мыши на число - период времени, за который выпало указанное количество осадков.
R24 - Количество осадков - Количество выпавших осадков за 24 часа, мм.
S - Снежный покров - Высота снежного покрова, см. При наведении курсора мыши на число - состояние снежного покрова и степень покрытия местности в баллах.